Time,TemperatureF,DewpointF,PressureIn,WindDirection,WindDirectionDegrees,WindSpeedMPH,WindSpeedGustMPH,Humidity,HourlyPrecipIn,Conditions,Clouds,dailyrainin,SoftwareType,DateUTC
2013-07-29 00:00:00,59.1,51.9,29.90,NNE,22,0.0,0.0,77,0.00,,SKC,0.00,VWS V14.01,2013-07-29 04:00:00,
2013-07-29 01:00:00,59.1,51.9,29.89,NNE,22,0.0,0.0,77,0.00,,SKC,0.00,VWS V14.01,2013-07-29 05:00:00,
2013-07-29 02:00:00,58.4,51.9,29.90,NNE,22,0.0,4.0,79,0.00,,SKC,0.00,VWS V14.01,2013-07-29 06:00:00,
2013-07-29 03:00:00,57.7,50.9,29.90,NNE,22,0.0,0.0,78,0.00,,SKC,0.00,VWS V14.01,2013-07-29 07:00:00,
2013-07-29 04:00:00,57.1,51.3,29.90,NNE,22,0.0,0.0,81,0.00,,SKC,0.00,VWS V14.01,2013-07-29 08:00:00,
2013-07-29 05:00:00,55.8,51.4,29.92,NNE,22,0.0,0.0,85,0.00,,SKC,0.00,VWS V14.01,2013-07-29 09:00:00,
2013-07-29 06:00:00,54.6,50.8,29.92,NNE,22,0.0,0.0,87,0.00,,SKC,0.00,VWS V14.01,2013-07-29 10:00:00,
2013-07-29 07:00:00,53.2,50.0,29.94,NNE,22,0.0,0.0,89,0.00,,SKC,0.00,VWS V14.01,2013-07-29 11:00:00,
2013-07-29 08:00:00,54.0,50.5,29.95,NNE,22,0.0,4.0,88,0.00,,SKC,0.00,VWS V14.01,2013-07-29 12:00:00,
2013-07-29 09:00:00,58.8,51.6,29.95,North,0,0.0,6.0,77,0.00,,SKC,0.00,VWS V14.01,2013-07-29 13:00:00,
2013-07-29 10:00:00,63.8,53.5,29.96,NNW,338,1.0,9.0,69,0.00,,SKC,0.00,VWS V14.01,2013-07-29 14:00:00,
2013-07-29 11:00:00,66.9,50.7,29.96,North,0,2.0,11.0,56,0.00,,SKC,0.00,VWS V14.01,2013-07-29 15:00:00,
2013-07-29 12:00:00,68.8,50.5,29.97,ENE,68,2.0,13.0,52,0.00,,SKC,0.00,VWS V14.01,2013-07-29 16:00:00,
2013-07-29 13:00:00,69.3,50.9,29.98,ENE,68,2.0,13.0,52,0.00,,SKC,0.00,VWS V14.01,2013-07-29 17:00:00,
2013-07-29 14:00:00,71.0,49.8,29.98,ENE,68,2.0,13.0,47,0.00,,SKC,0.00,VWS V14.01,2013-07-29 18:00:00,
2013-07-29 15:00:00,71.4,51.8,29.99,ENE,68,2.0,11.0,50,0.00,,SKC,0.00,VWS V14.01,2013-07-29 19:00:00,
2013-07-29 16:00:00,70.0,52.1,30.00,ENE,68,1.0,9.0,53,0.00,,SKC,0.00,VWS V14.01,2013-07-29 20:00:00,
2013-07-29 17:00:00,69.4,52.5,30.01,NE,45,0.0,6.0,55,0.00,,SKC,0.00,VWS V14.01,2013-07-29 21:00:00,
2013-07-29 18:00:00,68.9,53.5,30.01,ENE,68,0.0,6.0,58,0.00,,SKC,0.00,VWS V14.01,2013-07-29 22:00:00,
2013-07-29 19:00:00,68.8,54.4,30.02,North,0,0.0,5.0,60,0.00,,SKC,0.00,VWS V14.01,2013-07-29 23:00:00,
2013-07-29 20:00:00,67.8,55.6,30.03,NNE,22,0.0,2.0,65,0.00,,SKC,0.00,VWS V14.01,2013-07-30 00:00:00,
2013-07-29 21:00:00,66.3,55.8,30.03,NNE,22,0.0,0.0,69,0.00,,SKC,0.00,VWS V14.01,2013-07-30 01:00:00,
2013-07-29 22:00:00,63.2,56.6,30.04,NNE,22,0.0,0.0,79,0.00,,SKC,0.00,VWS V14.01,2013-07-30 02:00:00,
2013-07-29 23:00:00,60.6,56.1,30.05,NNE,22,0.0,0.0,85,0.00,,SKC,0.00,VWS V14.01,2013-07-30 03:00:00,